Clarksburg, WV

11:35 PM EDT on April 27, 2017 (GMT -0400)
Benedum

Weather History for KCKB - January, 2014

Change the Weather History Date:

Thursday, January 2, 2014

  Actual Average Record
Temperature  
Mean Temperature 25 °F -  
Max Temperature 35 °F 40 °F 72 °F (1952)
Min Temperature 15 °F 23 °F -7 °F (1968)
Degree Days  
Heating Degree Days 40    
Moisture  
Dew Point 24 °F    
Average Humidity 86    
Maximum Humidity 96    
Minimum Humidity 72    
Precipitation  
Precipitation 0.15 in - - ()
Sea Level Pressure  
Sea Level Pressure 29.78 in    
Wind  
Wind Speed 4 mph (NW)    
Max Wind Speed 16 mph    
Max Gust Speed 24 mph    
Visibility 4 miles    
Events Fog , Snow    
Averages and records for this station are not official NWS values.
T = Trace of Precipitation, MM = Missing Value Source: NWS Daily Summary

Daily Weather History Graph

Daily Weather History Graph

Search for Another Location

Airport or City:

Trip Planner

Search our weather history database for the weather conditions in past years. The results will help you decide how hot, cold, wet, or windy it might be!

Date:

Astronomy

Jan. 02, 2014 Rise Set
Actual Time 7:40 AM EST 5:09 PM EST
Civil Twilight 7:10 AM EST 5:39 PM EST
Nautical Twilight 6:37 AM EST 6:12 PM EST
Astronomical Twilight 6:04 AM EST 6:45 PM EST
Moon 8:21 AM EST (1/2) 7:03 PM EST (1/2)
Length of Visible Light 10h 28m
Length of Day
9h 28m
New Moon, 2% of the Moon is Illuminated
Jan 2
New Moon
Jan 7
First Quarter
Jan 15
Full
Jan 24
Last Quarter
Jan 30
New

Hourly Weather History & Observations

Time (EST) Temp. Windchill Dew Point Humidity Pressure Visibility Wind Dir Wind Speed Gust Speed Precip Events Conditions
12:53 AM 28.0 °F - 23.0 °F 81% 30.03 in 10.0 mi Calm Calm - N/A   Clear
1:53 AM 27.0 °F - 24.1 °F 89% 30.01 in 10.0 mi Calm Calm - N/A   Clear
2:53 AM 28.9 °F - 24.1 °F 82% 30.00 in 10.0 mi Calm Calm - N/A   Clear
3:53 AM 28.9 °F - 24.1 °F 82% 29.98 in 10.0 mi Calm Calm - N/A   Clear
4:53 AM 27.0 °F - 23.0 °F 85% 29.94 in 10.0 mi Calm Calm - N/A   Scattered Clouds
5:53 AM 27.0 °F - 24.1 °F 89% 29.93 in 10.0 mi Calm Calm - N/A   Overcast
6:53 AM 27.0 °F - 24.1 °F 89% 29.91 in 10.0 mi Calm Calm - N/A   Overcast
7:53 AM 28.0 °F - 25.0 °F 88% 29.91 in 10.0 mi Calm Calm - N/A   Overcast
8:53 AM 28.9 °F - 25.0 °F 85% 29.87 in 10.0 mi Calm Calm - N/A   Overcast
9:53 AM 30.9 °F 27.5 °F 27.0 °F 85% 29.83 in 10.0 mi North 3.5 mph - N/A   Overcast
10:53 AM 32.0 °F 28.7 °F 27.0 °F 82% 29.79 in 10.0 mi North 3.5 mph - N/A   Overcast
11:53 AM 35.1 °F 32.2 °F 27.0 °F 72% 29.73 in 10.0 mi Variable 3.5 mph - N/A   Overcast
12:53 PM 34.0 °F 31.0 °F 27.0 °F 75% 29.71 in 10.0 mi NNW 3.5 mph - N/A   Overcast
1:29 PM 33.8 °F 28.6 °F 28.4 °F 81% 29.67 in 2.0 mi NE 5.8 mph - 0.00 in Snow Light Snow
1:53 PM 32.0 °F 27.5 °F 28.9 °F 88% 29.68 in 2.0 mi NNE 4.6 mph - 0.00 in Snow Light Snow
2:51 PM 32.0 °F - 30.2 °F 93% 29.64 in 1.0 mi Calm Calm - 0.01 in Snow Light Snow
2:53 PM 32.0 °F - 30.0 °F 92% 29.66 in 1.0 mi Calm Calm - 0.01 in Snow Light Snow
3:24 PM 32.0 °F - 30.2 °F 93% 29.64 in 0.8 mi Calm Calm - 0.02 in Snow Light Snow
3:53 PM 32.0 °F 28.7 °F 30.0 °F 92% 29.66 in 0.5 mi NNW 3.5 mph - 0.04 in Fog , Snow Snow
4:00 PM 32.0 °F 27.5 °F 30.2 °F 93% 29.64 in 0.5 mi NNW 4.6 mph - 0.01 in Fog , Snow Snow
4:09 PM 32.0 °F - 30.2 °F 93% 29.64 in 0.8 mi Calm Calm - 0.01 in Snow Light Snow
4:25 PM 32.0 °F - 30.2 °F 93% 29.65 in 1.0 mi Calm Calm - 0.01 in Snow Light Snow
4:39 PM 32.0 °F - 30.2 °F 93% 29.65 in 0.8 mi Calm Calm - 0.02 in Snow Light Snow
4:53 PM 32.0 °F - 30.9 °F 96% 29.67 in 0.5 mi Calm Calm - 0.02 in Fog , Snow Snow
5:15 PM 32.0 °F - 30.2 °F 93% 29.66 in 1.0 mi Calm Calm - 0.01 in Snow Light Snow
5:41 PM 32.0 °F 28.7 °F 30.2 °F 93% 29.66 in 0.8 mi West 3.5 mph - 0.02 in Snow Light Snow
5:53 PM 32.0 °F 28.7 °F 30.0 °F 92% 29.69 in 1.0 mi West 3.5 mph - 0.03 in Snow Light Snow
6:18 PM 32.0 °F 25.6 °F 30.2 °F 93% 29.67 in 0.8 mi NW 6.9 mph - 0.02 in Snow Light Snow
6:28 PM 32.0 °F 25.6 °F 30.2 °F 93% 29.68 in 1.2 mi NW 6.9 mph - 0.02 in Snow Light Snow
6:37 PM 32.0 °F 24.8 °F 28.4 °F 87% 29.68 in 2.0 mi NW 8.1 mph - 0.02 in Snow Light Snow
6:53 PM 30.9 °F 22.2 °F 28.9 °F 92% 29.71 in 1.5 mi WNW 10.4 mph - 0.02 in Snow Light Snow
7:00 PM 30.2 °F 21.9 °F 28.4 °F 93% 29.69 in 2.0 mi WNW 9.2 mph - 0.01 in Snow Light Snow
7:09 PM 30.2 °F 21.3 °F 28.4 °F 93% 29.70 in 1.5 mi NW 10.4 mph - 0.01 in Snow Light Snow
7:53 PM 26.1 °F 15.0 °F 23.0 °F 88% 29.76 in 1.0 mi NW 12.7 mph - 0.02 in Snow Light Snow
8:10 PM 24.8 °F 11.9 °F 19.4 °F 80% 29.75 in 2.0 mi NNW 16.1 mph 24.2 mph 0.00 in Snow Light Snow
8:15 PM 24.8 °F 12.9 °F 19.4 °F 80% 29.75 in 3.0 mi NNW 13.8 mph 24.2 mph 0.00 in Snow Light Snow
8:24 PM 23.0 °F 10.6 °F 17.6 °F 80% 29.76 in 2.0 mi NNW 13.8 mph - 0.00 in Snow Light Snow
8:35 PM 21.2 °F 8.3 °F 17.6 °F 86% 29.76 in 1.8 mi NNW 13.8 mph 23.0 mph 0.00 in Snow Light Snow
8:53 PM 21.0 °F 8.1 °F 17.1 °F 85% 29.80 in 1.5 mi NW 13.8 mph - 0.00 in Snow Light Snow
9:03 PM 21.2 °F 10.9 °F 17.6 °F 86% 29.78 in 2.0 mi WNW 9.2 mph - 0.00 in Snow Light Snow
9:11 PM 21.2 °F 11.7 °F 17.6 °F 86% 29.78 in 1.8 mi WNW 8.1 mph - 0.00 in Snow Light Snow
9:21 PM 19.4 °F 7.9 °F 15.8 °F 86% 29.79 in 1.2 mi WNW 10.4 mph - 0.00 in Snow Light Snow
9:42 PM 19.4 °F 7.2 °F 14.0 °F 80% 29.81 in 1.5 mi NNW 11.5 mph 20.7 mph 0.00 in Snow Light Snow
9:53 PM 19.0 °F 5.0 °F 14.0 °F 81% 29.85 in 1.8 mi NW 15.0 mph 18.4 mph 0.00 in Snow Light Snow
10:53 PM 17.1 °F 2.0 °F 10.9 °F 77% 29.89 in 1.5 mi NW 16.1 mph 24.2 mph 0.00 in Snow Light Snow
11:11 PM 15.8 °F 0.9 °F 10.4 °F 79% 29.88 in 1.0 mi NNW 15.0 mph 23.0 mph 0.00 in Snow Light Snow
11:22 PM 15.8 °F 3.4 °F 10.4 °F 79% 29.89 in 0.8 mi NNW 10.4 mph 24.2 mph 0.01 in Snow Light Snow
11:33 PM 15.8 °F 3.4 °F 10.4 °F 79% 29.90 in 1.0 mi NW 10.4 mph - 0.01 in Snow Light Snow
11:53 PM 15.1 °F 0.5 °F 10.0 °F 80% 29.95 in 1.0 mi NW 13.8 mph - 0.01 in Snow Light Snow